Starlink 31186

operational
NORAD ID: 59030 Int'l Des: 2024-038 Owner: SPXS Country: US Constellation: starlink
LEOCIRCULAR

Starlink 31186について

説明を読み込み中...

リアルタイム位置

3D地球を読み込み中...

次回通過

高度履歴

Altitude vs Time

uPlot chart will show altitude changes over time

軌道要素

1 59030U 24038H 25259.48726575 .00002669 00000-0 10644-3 0 9992
2 59030 42.9999 291.0468 0000998 243.5106 116.5644 15.27588140 88114
Epoch: Sep 16, 2025 • Age: 35 hours

現在のステータス

高度 488.7 km
速度 7.62 km/s
衛星直下点 -25.30°S, 148.28°E
打ち上げ日 Feb 25, 2024
運用期間 1.5 years
タイプ internet

技術仕様

分類 Payload
質量 730.00 kg
乾燥質量 700.00 kg
総質量 730.00 kg
長さ 0.30 m
直径 4.10 m
スパン 29.00 m
形状 Box + pan
製造者 SPXS
バスタイプ Starlink V2M
フェーズステータス In Orbit
所有者/国 SPXS/US

大規模コンステレーション

Loading constellations...